EW9054 Weather Reports


Display with metric or nautical units.
time (UTC)temp
F
wind
direction
speed
MPH
gust
MPH
rain 1hr
in
rain 24hr
in
rain mn
in
humidity
%
barometer
mb
20260505013036 62 182 0.0 0.0 0.00 0.00 0.00 60 1014.3
20260505011536 62 182 0.0 0.0 0.00 0.00 0.00 60 1014.1
20260505010040 63 182 0.0 0.0 0.00 0.00 0.00 59 1014.0
20260505004544 64 182 0.0 0.0 0.00 0.00 0.00 57 1013.7
20260505003037 65 182 0.0 0.0 0.00 0.00 0.00 56 1013.6
20260505001534 67 182 0.0 0.0 0.00 0.00 0.00 53 1013.5
20260505000035 69 182 0.0 0.0 0.00 0.00 0.00 52 1013.4
20260504234548 71 182 0.0 0.0 0.00 0.00 0.00 48 1013.2
20260504233034 73 182 0.0 0.0 0.00 0.00 0.00 44 1013.1
20260504231542 74 194 0.0 4.0 0.00 0.00 0.00 42 1013.0
20260504230034 75 277 0.0 3.0 0.00 0.00 0.00 39 1013.0
20260504224531 76 175 0.0 5.0 0.00 0.00 0.00 38 1012.9
20260504223030 76 232 0.0 0.0 0.00 0.00 0.00 38 1013.0
20260504221529 76 225 0.0 5.0 0.00 0.00 0.00 37 1013.0
20260504220029 76 213 2.0 9.0 0.00 0.00 0.00 36 1013.0
20260504214535 76 208 1.0 7.0 0.00 0.00 0.00 36 1013.1
20260504213029 76 188 1.0 9.0 0.00 0.00 0.00 37 1013.0
20260504211525 76 229 0.0 10.0 0.00 0.00 0.00 36 1013.2
20260504210024 77 199 2.0 8.0 0.00 0.00 0.00 33 1013.2
20260504204549 77 256 1.0 5.0 0.00 0.00 0.00 36 1013.3
20260504203021 76 222 1.0 6.0 0.00 0.00 0.00 38 1013.5
20260504201517 76 210 0.0 7.0 0.00 0.00 0.00 37 1013.7
20260504200016 76 200 0.0 7.0 0.00 0.00 0.00 37 1014.0
20260504194513 76 162 2.0 9.0 0.00 0.00 0.00 40 1014.0
20260504193020 75 32 1.0 9.0 0.00 0.00 0.00 41 1014.1
20260504191510 75 200 1.0 7.0 0.00 0.00 0.00 41 1014.2
20260504190010 75 184 0.0 8.0 0.00 0.00 0.00 40 1014.6
20260504184505 75 277 0.0 6.0 0.00 0.00 0.00 41 1014.7
20260504183003 75 165 1.0 8.0 0.00 0.00 0.00 40 1014.8
20260504181501 74 288 0.0 7.0 0.00 0.00 0.00 45 1015.1
20260504180100 74 268 2.0 5.0 0.00 0.00 0.00 44 1015.3
20260504174555 73 312 0.0 4.0 0.00 0.00 0.00 45 1015.3
20260504173053 73 360 0.0 4.0 0.00 0.00 0.00 45 1015.6
20260504171553 73 194 0.0 7.0 0.00 0.00 0.00 48 1015.6
20260504081533 44 259 0.0 0.0 0.00 0.00 0.00 90 1016.3
20260504050010 49 206 0.0 0.0 0.00 0.00 0.00 85 1016.4
20260504044514 49 189 0.0 0.0 0.00 0.00 0.00 84 1016.5
20260504043009 49 202 0.0 0.0 0.00 0.00 0.00 85 1016.6
20260504041506 49 202 0.0 0.0 0.00 0.00 0.00 84 1016.8
20260504040005 49 200 0.0 0.0 0.00 0.00 0.00 83 1017.1
20260504034504 50 200 0.0 0.0 0.00 0.00 0.00 81 1017.0
20260504033001 51 200 0.0 0.0 0.00 0.00 0.00 80 1017.1
20260504031601 51 200 0.0 0.0 0.00 0.00 0.00 78 1017.0
20260504030100 52 184 0.0 0.0 0.00 0.00 0.00 77 1017.0
20260504024601 52 174 0.0 0.0 0.00 0.00 0.00 76 1017.0
20260504023059 53 174 0.0 0.0 0.00 0.00 0.00 74 1016.8
20260504021601 54 174 0.0 0.0 0.00 0.00 0.00 73 1016.6
20260504020058 55 174 0.0 0.0 0.00 0.00 0.00 71 1016.5
20260504014616 56 174 0.0 0.0 0.00 0.00 0.00 68 1016.3